Weather History for Kalaeloa, HI

Change the Weather History Date:

Monday, September 23, 2013

  Actual Average (PHNL) Record (PHNL)
Temperature  
Mean Temperature 79 °F 81 °F  
Max Temperature 87 °F 88 °F 93 °F (1995)
Min Temperature 71 °F 74 °F 67 °F (1950)
Degree Days  
Heating Degree Days 0 0  
Month to date heating degree days 0  
Since 1 July heating degree days 0  
Cooling Degree Days 14 16  
Month to date cooling degree days 384  
Year to date cooling degree days 3368  
Growing Degree Days 29 (Base 50)    
Moisture  
Dew Point 66 °F    
Average Humidity 68    
Maximum Humidity 81    
Minimum Humidity 46    
Precipitation  
Precipitation 0.00 in 0.03 in 0.78 in (1985)
Month to date precipitation 0.50  
Year to date precipitation 9.40  
Snow  
Snow 0.00 in - - ()
Month to date snowfall  
Since 1 July snowfall  
Since 1 September snowfall  
Snow Depth -    
Sea Level Pressure  
Sea Level Pressure 30.02 in    
Wind  
Wind Speed 4 mph (ENE)    
Max Wind Speed 10 mph    
Max Gust Speed 21 mph    
Visibility 10 miles    
Events      
T = Trace of Precipitation, MM = Missing Value Source: NWS Daily Summary

Daily Weather History Graph

Daily Weather History Graph

Search for Another Location

Airport:

Trip Planner

Search our weather history database for the weather conditions in past years. The results will help you decide how hot, cold, wet, or windy it might be!

Date:

Astronomy

Sep. 23, 2013 Rise Set
Actual Time 6:21 AM HST 6:27 PM HST
Civil Twilight 5:59 AM HST 6:49 PM HST
Nautical Twilight 5:33 AM HST 7:15 PM HST
Astronomical Twilight 5:07 AM HST 7:40 PM HST
Moon 9:43 PM HST 10:17 AM HST
Length of Visible Light 12h 50m
Length of Day
12h 05m
Waning Gibbous, 79% of the Moon is Illuminated
Sep 23
Waning Gibbous
Sep 26
Last Quarter
Oct 4
New
Oct 11
First Quarter
Oct 18
Full

Hourly Weather History & Observations

Time (HST) Temp. Heat Index Dew Point Humidity Pressure Visibility Wind Dir Wind Speed Gust Speed Precip Events Conditions
12:53 AM 73.0 °F - 66.0 °F 79% 30.04 in 10.0 mi Variable 3.5 mph - N/A   Scattered Clouds
1:53 AM 72.0 °F - 64.9 °F 78% 30.03 in 10.0 mi Variable 3.5 mph - N/A   Clear
2:53 AM 72.0 °F - 64.9 °F 78% 30.02 in 10.0 mi Variable 3.5 mph - N/A   Clear
3:53 AM 71.1 °F - 64.0 °F 78% 30.01 in 10.0 mi Calm Calm - N/A   Clear
4:53 AM 71.1 °F - 64.0 °F 78% 30.02 in 10.0 mi ENE 3.5 mph - N/A   Scattered Clouds
5:53 AM 71.1 °F - 64.9 °F 81% 30.03 in 10.0 mi Calm Calm - N/A   Clear
6:53 AM 71.1 °F - 64.9 °F 81% 30.04 in 10.0 mi Calm Calm - N/A   Clear
7:53 AM 75.9 °F - 66.0 °F 71% 30.05 in 10.0 mi Calm Calm - N/A   Partly Cloudy
8:53 AM 79.0 °F - 68.0 °F 69% 30.06 in 10.0 mi Variable 4.6 mph - N/A   Scattered Clouds
9:53 AM 82.0 °F 84.5 °F 66.9 °F 60% 30.06 in 10.0 mi ENE 9.2 mph - N/A   Partly Cloudy
10:53 AM 82.9 °F 85.4 °F 66.9 °F 58% 30.05 in 10.0 mi ENE 8.1 mph - N/A   Mostly Cloudy
11:53 AM 84.9 °F 87.6 °F 66.9 °F 55% 30.02 in 10.0 mi Variable 6.9 mph - N/A   Scattered Clouds
12:53 PM 84.9 °F 87.6 °F 66.9 °F 55% 30.00 in 10.0 mi ENE 8.1 mph - N/A   Partly Cloudy
1:53 PM 87.1 °F 88.3 °F 64.0 °F 46% 29.98 in 10.0 mi Variable 4.6 mph 20.7 mph N/A   Partly Cloudy
2:53 PM 87.1 °F 88.9 °F 64.9 °F 48% 29.97 in 10.0 mi Variable 5.8 mph - N/A   Partly Cloudy
3:53 PM 84.0 °F 86.3 °F 66.0 °F 55% 29.96 in 10.0 mi ENE 8.1 mph - N/A   Partly Cloudy
4:53 PM 82.9 °F 85.0 °F 66.0 °F 56% 29.96 in 10.0 mi ENE 10.4 mph 16.1 mph N/A   Clear
5:53 PM 79.0 °F - 66.9 °F 66% 29.99 in 10.0 mi Variable 5.8 mph - N/A   Mostly Cloudy
6:53 PM 77.0 °F - 66.9 °F 71% 30.00 in 10.0 mi Variable 4.6 mph - N/A   Partly Cloudy
7:53 PM 77.0 °F - 66.9 °F 71% 30.01 in 10.0 mi ENE 5.8 mph - N/A   Clear
8:53 PM 75.9 °F - 66.9 °F 74% 30.02 in 10.0 mi ENE 3.5 mph - N/A   Partly Cloudy
9:53 PM 75.9 °F - 66.9 °F 74% 30.02 in 10.0 mi Variable 5.8 mph - N/A   Clear
10:53 PM 75.9 °F - 66.9 °F 74% 30.02 in 10.0 mi East 3.5 mph - N/A   Clear
11:53 PM 75.0 °F - 66.0 °F 73% 30.01 in 10.0 mi Calm Calm - N/A   Clear